| time (UTC) | temp F | wind direction | speed MPH | gust MPH | rain 1hr in | rain 24hr in | rain mn in | humidity % | barometer mb |
| 20260510212605 | 75 | 339 | 1.0 | 3.0 | 0.00 | 0.00 | 0.00 | 51 | 1012.0 |
| 20260510212105 | 76 | 200 | 0.0 | 3.0 | 0.00 | 0.00 | 0.00 | 49 | 1011.9 |
| 20260510211105 | 76 | 3 | 1.0 | 2.0 | 0.00 | 0.00 | 0.00 | 47 | 1011.5 |
| 20260510210605 | 77 | 321 | 0.0 | 2.0 | 0.00 | 0.00 | 0.00 | 47 | 1011.3 |
| 20260510210104 | 77 | 318 | 0.0 | 2.0 | 0.00 | 0.00 | 0.00 | 47 | 1011.2 |
| 20260510205604 | 77 | 6 | 0.0 | 2.0 | 0.00 | 0.00 | 0.00 | 46 | 1011.2 |
| 20260510205105 | 77 | 323 | 1.0 | 2.0 | 0.00 | 0.00 | 0.00 | 46 | 1011.3 |
| 20260510204604 | 77 | 56 | 1.0 | 2.0 | 0.00 | 0.00 | 0.00 | 45 | 1011.3 |
| 20260510204104 | 77 | 126 | 1.0 | 2.0 | 0.00 | 0.00 | 0.00 | 47 | 1011.3 |
| 20260510203604 | 77 | 322 | 1.0 | 3.0 | 0.00 | 0.00 | 0.00 | 47 | 1011.2 |
| 20260510203104 | 77 | 314 | 1.0 | 3.0 | 0.00 | 0.00 | 0.00 | 48 | 1011.2 |
| 20260510202604 | 77 | 342 | 1.0 | 2.0 | 0.00 | 0.00 | 0.00 | 48 | 1011.2 |
| 20260510202104 | 77 | 169 | 2.0 | 3.0 | 0.00 | 0.00 | 0.00 | 49 | 1011.3 |
| 20260510201604 | 76 | 194 | 1.0 | 3.0 | 0.00 | 0.00 | 0.00 | 50 | 1011.4 |
| 20260510201105 | 75 | 297 | 1.0 | 2.0 | 0.00 | 0.00 | 0.00 | 50 | 1011.4 |
| 20260510200605 | 75 | 326 | 1.0 | 3.0 | 0.00 | 0.00 | 0.00 | 51 | 1011.5 |
| 20260510195604 | 75 | 324 | 1.0 | 5.0 | 0.00 | 0.00 | 0.00 | 50 | 1011.6 |
| 20260510195104 | 75 | 266 | 2.0 | 3.0 | 0.00 | 0.00 | 0.00 | 52 | 1011.6 |
| 20260510194604 | 74 | 335 | 1.0 | 7.0 | 0.00 | 0.00 | 0.00 | 53 | 1011.7 |
| 20260510194104 | 74 | 322 | 1.0 | 2.0 | 0.00 | 0.00 | 0.00 | 54 | 1011.7 |
| 20260510193605 | 74 | 312 | 1.0 | 3.0 | 0.00 | 0.00 | 0.00 | 53 | 1011.8 |
| 20260510193105 | 75 | 280 | 2.0 | 7.0 | 0.00 | 0.00 | 0.00 | 51 | 1011.9 |
| 20260510192605 | 76 | 292 | 2.0 | 3.0 | 0.00 | 0.00 | 0.00 | 50 | 1012.0 |
| 20260510192104 | 76 | 311 | 2.0 | 3.0 | 0.00 | 0.00 | 0.00 | 48 | 1012.0 |
| 20260510191605 | 77 | 321 | 1.0 | 3.0 | 0.00 | 0.01 | 0.00 | 49 | 1011.9 |
| 20260510191104 | 77 | 132 | 1.0 | 3.0 | 0.00 | 0.01 | 0.00 | 48 | 1012.0 |
| 20260510190604 | 77 | 325 | 1.0 | 3.0 | 0.00 | 0.01 | 0.00 | 46 | 1011.8 |
| 20260510190104 | 78 | 105 | 1.0 | 3.0 | 0.00 | 0.01 | 0.00 | 45 | 1011.8 |
| 20260510185605 | 78 | 177 | 1.0 | 3.0 | 0.00 | 0.01 | 0.00 | 44 | 1011.9 |
| 20260510185105 | 78 | 284 | 1.0 | 6.0 | 0.00 | 0.01 | 0.00 | 43 | 1011.9 |
| 20260510184605 | 79 | 345 | 2.0 | 6.0 | 0.00 | 0.01 | 0.00 | 42 | 1011.8 |
| 20260510184104 | 79 | 133 | 2.0 | 5.0 | 0.00 | 0.01 | 0.00 | 43 | 1011.8 |
| 20260510183604 | 79 | 272 | 1.0 | 3.0 | 0.00 | 0.01 | 0.00 | 42 | 1011.8 |
| 20260510183105 | 79 | 119 | 2.0 | 6.0 | 0.00 | 0.01 | 0.00 | 42 | 1011.8 |
| 20260510182604 | 80 | 359 | 3.0 | 9.0 | 0.00 | 0.01 | 0.00 | 41 | 1011.7 |
| 20260510182104 | 81 | 120 | 2.0 | 6.0 | 0.00 | 0.01 | 0.00 | 42 | 1011.8 |
| 20260510181604 | 81 | 294 | 2.0 | 5.0 | 0.00 | 0.01 | 0.00 | 41 | 1011.8 |
| 20260510181104 | 81 | 28 | 2.0 | 7.0 | 0.00 | 0.01 | 0.00 | 40 | 1011.8 |
| 20260510180605 | 81 | 319 | 2.0 | 7.0 | 0.00 | 0.01 | 0.00 | 40 | 1011.9 |
| 20260510175606 | 81 | 174 | 3.0 | 7.0 | 0.00 | 0.01 | 0.00 | 41 | 1012.0 |
| 20260510175105 | 80 | 150 | 2.0 | 6.0 | 0.00 | 0.01 | 0.00 | 43 | 1011.9 |
| 20260510174605 | 81 | 316 | 2.0 | 7.0 | 0.00 | 0.01 | 0.00 | 43 | 1012.0 |
| 20260510174105 | 81 | 273 | 2.0 | 7.0 | 0.00 | 0.01 | 0.00 | 42 | 1011.9 |
| 20260510173604 | 81 | 179 | 1.0 | 5.0 | 0.00 | 0.01 | 0.00 | 43 | 1011.8 |
| 20260510173104 | 80 | 89 | 1.0 | 6.0 | 0.00 | 0.01 | 0.00 | 44 | 1011.8 |
| 20260510172605 | 80 | 301 | 2.0 | 5.0 | 0.00 | 0.01 | 0.00 | 43 | 1011.9 |
| 20260510172105 | 80 | 324 | 2.0 | 3.0 | 0.00 | 0.01 | 0.00 | 44 | 1011.8 |
| 20260510171605 | 80 | 15 | 1.0 | 7.0 | 0.00 | 0.01 | 0.00 | 45 | 1011.9 |
| 20260510171104 | 80 | 138 | 1.0 | 5.0 | 0.00 | 0.01 | 0.00 | 45 | 1011.9 |
| 20260510170605 | 79 | 186 | 1.0 | 6.0 | 0.00 | 0.01 | 0.00 | 46 | 1012.1 |
| 20260510165604 | 79 | 170 | 2.0 | 6.0 | 0.00 | 0.01 | 0.00 | 46 | 1012.1 |
| 20260510165105 | 79 | 150 | 2.0 | 3.0 | 0.00 | 0.01 | 0.00 | 45 | 1012.1 |
| 20260510164606 | 78 | 165 | 3.0 | 7.0 | 0.00 | 0.01 | 0.00 | 47 | 1012.2 |
| 20260510164105 | 78 | 197 | 2.0 | 5.0 | 0.00 | 0.01 | 0.00 | 46 | 1012.1 |
| 20260510163605 | 78 | 239 | 2.0 | 8.0 | 0.00 | 0.01 | 0.00 | 48 | 1012.2 |
| 20260510163105 | 77 | 158 | 2.0 | 3.0 | 0.00 | 0.01 | 0.00 | 48 | 1012.1 |
| 20260510162604 | 77 | 120 | 2.0 | 5.0 | 0.00 | 0.01 | 0.00 | 49 | 1012.1 |
| 20260510162104 | 77 | 18 | 1.0 | 3.0 | 0.00 | 0.01 | 0.00 | 51 | 1012.1 |
| 20260510161604 | 76 | 335 | 1.0 | 3.0 | 0.00 | 0.01 | 0.00 | 50 | 1012.1 |
| 20260510161105 | 76 | 123 | 1.0 | 3.0 | 0.00 | 0.01 | 0.00 | 52 | 1012.1 |
| 20260510160605 | 75 | 173 | 2.0 | 3.0 | 0.00 | 0.01 | 0.00 | 50 | 1012.1 |
| 20260510155605 | 75 | 332 | 1.0 | 3.0 | 0.00 | 0.01 | 0.00 | 48 | 1012.2 |
| 20260510154605 | 74 | 130 | 0.0 | 2.0 | 0.00 | 0.01 | 0.00 | 53 | 1012.4 |
| 20260510154105 | 73 | 337 | 1.0 | 6.0 | 0.00 | 0.01 | 0.00 | 54 | 1012.5 |
| 20260510153605 | 73 | 326 | 2.0 | 8.0 | 0.00 | 0.01 | 0.00 | 54 | 1012.5 |
| 20260510153105 | 74 | 282 | 2.0 | 5.0 | 0.00 | 0.01 | 0.00 | 54 | 1012.6 |
| 20260510152604 | 74 | 327 | 0.0 | 3.0 | 0.00 | 0.01 | 0.00 | 56 | 1012.6 |
| 20260510152104 | 73 | 308 | 0.0 | 3.0 | 0.00 | 0.01 | 0.00 | 59 | 1012.5 |
| 20260510151605 | 72 | 196 | 1.0 | 5.0 | 0.00 | 0.01 | 0.00 | 64 | 1012.5 |
| 20260510151105 | 72 | 172 | 1.0 | 3.0 | 0.00 | 0.01 | 0.00 | 68 | 1012.5 |
| 20260510150105 | 71 | 153 | 1.0 | 6.0 | 0.00 | 0.01 | 0.00 | 68 | 1012.5 |
| 20260510145605 | 70 | 143 | 2.0 | 6.0 | 0.00 | 0.01 | 0.00 | 68 | 1012.5 |
| 20260510145106 | 69 | 335 | 2.0 | 3.0 | 0.00 | 0.01 | 0.00 | 70 | 1012.6 |
| 20260510144605 | 69 | 155 | 2.0 | 3.0 | 0.00 | 0.01 | 0.00 | 69 | 1012.6 |
| 20260510144104 | 69 | 140 | 0.0 | 3.0 | 0.00 | 0.01 | 0.00 | 73 | 1012.5 |
| 20260510143605 | 68 | 158 | 1.0 | 2.0 | 0.00 | 0.01 | 0.00 | 73 | 1012.6 |
| 20260510143105 | 67 | 139 | 1.0 | 2.0 | 0.00 | 0.01 | 0.00 | 75 | 1012.6 |
| 20260510142604 | 67 | 348 | 1.0 | 3.0 | 0.00 | 0.01 | 0.00 | 73 | 1012.6 |
| 20260510141604 | 66 | 198 | 0.0 | 3.0 | 0.00 | 0.01 | 0.00 | 76 | 1012.7 |
| 20260510141104 | 65 | 190 | 2.0 | 3.0 | 0.00 | 0.01 | 0.00 | 76 | 1012.7 |
| 20260510140605 | 65 | 155 | 0.0 | 2.0 | 0.00 | 0.01 | 0.00 | 78 | 1012.7 |
| 20260510140105 | 64 | 331 | 1.0 | 2.0 | 0.00 | 0.01 | 0.00 | 79 | 1012.6 |
| 20260510135605 | 63 | 146 | 0.0 | 2.0 | 0.00 | 0.01 | 0.00 | 83 | 1012.6 |
| 20260510135105 | 62 | 118 | 1.0 | 2.0 | 0.00 | 0.01 | 0.00 | 84 | 1012.6 |
| 20260510134605 | 61 | 158 | 1.0 | 3.0 | 0.00 | 0.01 | 0.00 | 87 | 1012.5 |
| 20260510134104 | 60 | 147 | 1.0 | 2.0 | 0.00 | 0.01 | 0.00 | 89 | 1012.6 |
| 20260510133604 | 60 | 342 | 1.0 | 2.0 | 0.00 | 0.01 | 0.00 | 91 | 1012.6 |
| 20260510133104 | 59 | 356 | 0.0 | 2.0 | 0.00 | 0.01 | 0.00 | 93 | 1012.6 |
| 20260510132605 | 59 | 183 | 0.0 | 0.0 | 0.00 | 0.01 | 0.00 | 94 | 1012.7 |
| 20260510132105 | 58 | 183 | 0.0 | 0.0 | 0.00 | 0.01 | 0.00 | 94 | 1012.8 |
| 20260510131605 | 57 | 182 | 1.0 | 2.0 | 0.00 | 0.01 | 0.00 | 93 | 1012.8 |
| 20260510131105 | 57 | 131 | 1.0 | 3.0 | 0.00 | 0.01 | 0.00 | 93 | 1012.8 |
| 20260510130605 | 57 | 170 | 1.0 | 2.0 | 0.00 | 0.01 | 0.00 | 94 | 1012.8 |
| 20260510130105 | 56 | 134 | 0.0 | 1.0 | 0.00 | 0.01 | 0.00 | 94 | 1012.7 |
| 20260510125604 | 55 | 138 | 0.0 | 2.0 | 0.00 | 0.01 | 0.00 | 94 | 1012.7 |
| 20260510125105 | 55 | 122 | 1.0 | 2.0 | 0.00 | 0.01 | 0.00 | 94 | 1012.6 |
| 20260510124604 | 55 | 130 | 0.0 | 1.0 | 0.00 | 0.01 | 0.00 | 94 | 1012.5 |
| 20260510124105 | 55 | 148 | 0.0 | 0.0 | 0.00 | 0.01 | 0.00 | 95 | 1012.5 |
| 20260510123105 | 54 | 224 | 0.0 | 1.0 | 0.00 | 0.01 | 0.00 | 94 | 1012.4 |
| 20260510122604 | 54 | 332 | 0.0 | 0.0 | 0.00 | 0.01 | 0.00 | 94 | 1012.5 |
| 20260510122104 | 54 | 350 | 1.0 | 2.0 | 0.00 | 0.01 | 0.00 | 94 | 1012.4 |
| 20260510121604 | 54 | 62 | 0.0 | 1.0 | 0.00 | 0.01 | 0.00 | 94 | 1012.1 |
| 20260510121104 | 54 | 60 | 0.0 | 1.0 | 0.00 | 0.01 | 0.00 | 94 | 1012.2 |
| 20260510120604 | 54 | 296 | 0.0 | 0.0 | 0.00 | 0.01 | 0.00 | 94 | 1012.3 |
| 20260510120105 | 53 | 296 | 0.0 | 1.0 | 0.00 | 0.01 | 0.00 | 94 | 1012.2 |
| 20260510115605 | 53 | 347 | 0.0 | 1.0 | 0.00 | 0.01 | 0.00 | 94 | 1012.1 |
| 20260510115104 | 53 | 2 | 1.0 | 1.0 | 0.00 | 0.01 | 0.00 | 94 | 1012.3 |
| 20260510114105 | 53 | 313 | 0.0 | 0.0 | 0.00 | 0.01 | 0.00 | 94 | 1012.1 |
| 20260510113105 | 53 | 316 | 0.0 | 1.0 | 0.00 | 0.01 | 0.00 | 94 | 1012.0 |
| 20260510112104 | 53 | 320 | 0.0 | 2.0 | 0.00 | 0.01 | 0.00 | 94 | 1011.8 |
| 20260510111605 | 53 | 353 | 0.0 | 1.0 | 0.00 | 0.01 | 0.00 | 94 | 1011.7 |
| 20260510111105 | 53 | 338 | 0.0 | 3.0 | 0.00 | 0.01 | 0.00 | 94 | 1011.6 |
| 20260510110604 | 53 | 320 | 1.0 | 3.0 | 0.00 | 0.01 | 0.00 | 94 | 1011.4 |
| 20260510110105 | 53 | 290 | 0.0 | 2.0 | 0.00 | 0.01 | 0.00 | 94 | 1011.4 |
| 20260510105605 | 53 | 82 | 0.0 | 1.0 | 0.00 | 0.01 | 0.00 | 94 | 1011.3 |
| 20260510105105 | 53 | 5 | 0.0 | 1.0 | 0.00 | 0.01 | 0.00 | 94 | 1011.3 |
| 20260510104605 | 53 | 13 | 0.0 | 1.0 | 0.00 | 0.01 | 0.00 | 94 | 1011.3 |
| 20260510104104 | 53 | 75 | 0.0 | 1.0 | 0.00 | 0.01 | 0.00 | 94 | 1011.1 |
| 20260510103604 | 52 | 74 | 0.0 | 1.0 | 0.00 | 0.01 | 0.00 | 94 | 1011.1 |
| 20260510103104 | 52 | 340 | 0.0 | 2.0 | 0.00 | 0.01 | 0.00 | 94 | 1011.1 |
| 20260510101605 | 52 | 296 | 0.0 | 2.0 | 0.00 | 0.01 | 0.00 | 94 | 1011.3 |
| 20260510101105 | 52 | 351 | 0.0 | 1.0 | 0.00 | 0.01 | 0.00 | 94 | 1011.2 |
| 20260510100606 | 52 | 335 | 0.0 | 2.0 | 0.00 | 0.01 | 0.00 | 94 | 1011.1 |
| 20260510100105 | 52 | 271 | 1.0 | 3.0 | 0.00 | 0.01 | 0.00 | 94 | 1011.2 |
| 20260510095605 | 52 | 329 | 0.0 | 1.0 | 0.00 | 0.01 | 0.00 | 94 | 1011.2 |
| 20260510095104 | 52 | 329 | 0.0 | 1.0 | 0.00 | 0.01 | 0.00 | 94 | 1011.1 |
| 20260510094604 | 52 | 330 | 0.0 | 1.0 | 0.00 | 0.01 | 0.00 | 94 | 1011.0 |
| 20260510093605 | 52 | 121 | 0.0 | 2.0 | 0.00 | 0.01 | 0.00 | 94 | 1010.8 |
| 20260510092605 | 51 | 245 | 1.0 | 3.0 | 0.00 | 0.01 | 0.00 | 94 | 1010.8 |
| 20260510092104 | 51 | 248 | 0.0 | 2.0 | 0.00 | 0.01 | 0.00 | 94 | 1010.6 |
| 20260510091604 | 51 | 177 | 0.0 | 1.0 | 0.00 | 0.01 | 0.00 | 94 | 1010.6 |
| 20260510091104 | 51 | 101 | 0.0 | 0.0 | 0.00 | 0.01 | 0.00 | 94 | 1010.2 |
| 20260510090604 | 51 | 101 | 0.0 | 1.0 | 0.00 | 0.01 | 0.00 | 94 | 1010.2 |
| 20260510090104 | 51 | 101 | 0.0 | 0.0 | 0.00 | 0.01 | 0.00 | 94 | 1010.2 |
| 20260510085604 | 51 | 101 | 0.0 | 1.0 | 0.00 | 0.01 | 0.00 | 94 | 1010.2 |
| 20260510085105 | 51 | 101 | 0.0 | 1.0 | 0.00 | 0.01 | 0.00 | 94 | 1010.2 |
| 20260510084605 | 50 | 102 | 0.0 | 0.0 | 0.00 | 0.01 | 0.00 | 93 | 1010.3 |
| 20260510084105 | 50 | 103 | 0.0 | 0.0 | 0.00 | 0.01 | 0.00 | 93 | 1010.2 |
| 20260510083104 | 50 | 102 | 0.0 | 0.0 | 0.00 | 0.01 | 0.00 | 93 | 1010.2 |
| 20260510082104 | 50 | 138 | 0.0 | 1.0 | 0.00 | 0.01 | 0.00 | 93 | 1010.2 |
| 20260510081105 | 50 | 49 | 0.0 | 0.0 | 0.00 | 0.01 | 0.00 | 93 | 1010.2 |
| 20260510080105 | 50 | 49 | 0.0 | 0.0 | 0.00 | 0.01 | 0.00 | 92 | 1010.0 |
| 20260510075104 | 50 | 49 | 0.0 | 0.0 | 0.00 | 0.01 | 0.00 | 93 | 1010.0 |
| 20260510074605 | 50 | 49 | 0.0 | 1.0 | 0.00 | 0.01 | 0.00 | 93 | 1009.9 |
| 20260510073104 | 50 | 65 | 0.0 | 0.0 | 0.00 | 0.01 | 0.00 | 92 | 1009.5 |
| 20260510072605 | 50 | 65 | 0.0 | 0.0 | 0.00 | 0.01 | 0.00 | 92 | 1009.4 |
| 20260510071605 | 50 | 65 | 0.0 | 0.0 | 0.00 | 0.01 | 0.00 | 92 | 1009.4 |
| 20260510071104 | 50 | 65 | 0.0 | 0.0 | 0.00 | 0.01 | 0.00 | 92 | 1009.4 |
| 20260510070604 | 50 | 65 | 0.0 | 0.0 | 0.00 | 0.01 | 0.00 | 91 | 1009.4 |
| 20260510070104 | 50 | 65 | 0.0 | 0.0 | 0.00 | 0.01 | 0.00 | 91 | 1009.5 |
| 20260510065604 | 50 | 65 | 0.0 | 0.0 | 0.00 | 0.01 | 0.00 | 90 | 1009.5 |
| 20260510065104 | 50 | 65 | 0.0 | 0.0 | 0.00 | 0.01 | 0.00 | 90 | 1009.5 |
| 20260510064605 | 50 | 65 | 0.0 | 0.0 | 0.00 | 0.01 | 0.00 | 90 | 1009.6 |
| 20260510064105 | 50 | 65 | 0.0 | 0.0 | 0.00 | 0.01 | 0.00 | 90 | 1009.6 |
| 20260510063605 | 50 | 65 | 0.0 | 0.0 | 0.00 | 0.01 | 0.00 | 90 | 1009.5 |
| 20260510063104 | 50 | 65 | 0.0 | 0.0 | 0.00 | 0.01 | 0.00 | 90 | 1009.6 |
| 20260510062604 | 50 | 65 | 0.0 | 0.0 | 0.00 | 0.01 | 0.00 | 90 | 1009.7 |
| 20260510062104 | 50 | 65 | 0.0 | 0.0 | 0.00 | 0.01 | 0.00 | 89 | 1009.7 |
| 20260510061604 | 50 | 65 | 0.0 | 0.0 | 0.00 | 0.01 | 0.00 | 88 | 1009.7 |
| 20260510061104 | 50 | 65 | 0.0 | 0.0 | 0.00 | 0.01 | 0.00 | 88 | 1009.6 |
| 20260510060604 | 50 | 65 | 0.0 | 0.0 | 0.00 | 0.01 | 0.00 | 88 | 1009.7 |
| 20260510060104 | 50 | 65 | 0.0 | 0.0 | 0.00 | 0.01 | 0.00 | 87 | 1009.7 |
| 20260510055604 | 50 | 65 | 0.0 | 0.0 | 0.00 | 0.01 | 0.00 | 87 | 1009.8 |
| 20260510055104 | 50 | 65 | 0.0 | 0.0 | 0.00 | 0.01 | 0.00 | 87 | 1009.8 |
| 20260510054605 | 50 | 65 | 0.0 | 0.0 | 0.00 | 0.01 | 0.00 | 87 | 1009.9 |
| 20260510054105 | 50 | 65 | 0.0 | 0.0 | 0.00 | 0.01 | 0.00 | 87 | 1009.9 |
| 20260510053605 | 51 | 65 | 0.0 | 0.0 | 0.00 | 0.01 | 0.00 | 87 | 1010.0 |
| 20260510053105 | 51 | 65 | 0.0 | 0.0 | 0.00 | 0.01 | 0.00 | 87 | 1010.0 |
| 20260510052104 | 51 | 65 | 0.0 | 0.0 | 0.00 | 0.01 | 0.00 | 87 | 1010.0 |
| 20260510051604 | 51 | 65 | 0.0 | 0.0 | 0.00 | 0.01 | 0.00 | 86 | 1010.1 |
| 20260510051105 | 51 | 65 | 0.0 | 0.0 | 0.00 | 0.01 | 0.00 | 85 | 1010.0 |
| 20260510050105 | 51 | 65 | 0.0 | 0.0 | 0.00 | 0.01 | 0.00 | 84 | 1010.1 |
| 20260510045605 | 51 | 65 | 0.0 | 0.0 | 0.00 | 0.01 | 0.00 | 83 | 1010.2 |
| 20260510045105 | 51 | 65 | 0.0 | 0.0 | 0.00 | 0.01 | 0.00 | 83 | 1010.2 |
| 20260510044605 | 52 | 65 | 0.0 | 0.0 | 0.00 | 0.01 | 0.00 | 83 | 1010.2 |
| 20260510043604 | 52 | 65 | 0.0 | 0.0 | 0.00 | 0.01 | 0.00 | 83 | 1010.3 |
| 20260510043105 | 52 | 65 | 0.0 | 0.0 | 0.00 | 0.01 | 0.00 | 83 | 1010.3 |
| 20260510042605 | 52 | 65 | 0.0 | 0.0 | 0.00 | 0.01 | 0.00 | 83 | 1010.3 |
| 20260510041605 | 53 | 65 | 0.0 | 0.0 | 0.00 | 0.01 | 0.00 | 83 | 1010.3 |
| 20260510041105 | 53 | 65 | 0.0 | 0.0 | 0.00 | 0.01 | 0.00 | 83 | 1010.3 |
| 20260510040605 | 53 | 65 | 0.0 | 0.0 | 0.00 | 0.01 | 0.00 | 83 | 1010.3 |
| 20260510040105 | 53 | 65 | 0.0 | 1.0 | 0.00 | 0.01 | 0.00 | 83 | 1010.3 |
| 20260510035604 | 53 | 65 | 0.0 | 0.0 | 0.00 | 0.01 | 0.01 | 83 | 1010.4 |
| 20260510035104 | 53 | 65 | 0.0 | 0.0 | 0.00 | 0.01 | 0.01 | 83 | 1010.3 |
| 20260510034105 | 54 | 75 | 0.0 | 1.0 | 0.00 | 0.01 | 0.01 | 83 | 1010.2 |
| 20260510033105 | 54 | 70 | 0.0 | 1.0 | 0.00 | 0.01 | 0.01 | 83 | 1009.9 |
| 20260510031605 | 53 | 70 | 0.0 | 1.0 | 0.00 | 0.01 | 0.01 | 81 | 1009.9 |
| 20260510031105 | 53 | 70 | 0.0 | 1.0 | 0.00 | 0.01 | 0.01 | 81 | 1009.9 |
| 20260510030604 | 53 | 70 | 0.0 | 0.0 | 0.00 | 0.01 | 0.01 | 81 | 1009.8 |
| 20260510030104 | 54 | 70 | 0.0 | 0.0 | 0.00 | 0.01 | 0.01 | 81 | 1009.8 |
| 20260510025605 | 54 | 70 | 0.0 | 2.0 | 0.00 | 0.01 | 0.01 | 81 | 1009.7 |
| 20260510025105 | 54 | 67 | 0.0 | 0.0 | 0.00 | 0.01 | 0.01 | 81 | 1009.7 |
| 20260510024605 | 54 | 61 | 0.0 | 1.0 | 0.00 | 0.01 | 0.01 | 81 | 1009.8 |
| 20260510024105 | 54 | 61 | 0.0 | 0.0 | 0.00 | 0.01 | 0.01 | 81 | 1009.9 |
| 20260510023604 | 54 | 61 | 0.0 | 0.0 | 0.00 | 0.01 | 0.01 | 80 | 1009.9 |
| 20260510023104 | 54 | 61 | 0.0 | 1.0 | 0.00 | 0.01 | 0.01 | 81 | 1009.8 |
| 20260510022605 | 54 | 61 | 0.0 | 1.0 | 0.00 | 0.01 | 0.01 | 80 | 1009.8 |
| 20260510022104 | 54 | 61 | 0.0 | 0.0 | 0.00 | 0.01 | 0.01 | 80 | 1009.8 |
| 20260510021604 | 54 | 61 | 0.0 | 1.0 | 0.00 | 0.01 | 0.01 | 81 | 1009.8 |
| 20260510021104 | 54 | 61 | 0.0 | 1.0 | 0.00 | 0.01 | 0.01 | 81 | 1009.8 |
| 20260510020605 | 54 | 56 | 0.0 | 1.0 | 0.00 | 0.01 | 0.01 | 80 | 1009.8 |
| 20260510020104 | 54 | 24 | 0.0 | 0.0 | 0.00 | 0.01 | 0.01 | 80 | 1009.8 |
| 20260510015604 | 54 | 23 | 0.0 | 1.0 | 0.00 | 0.01 | 0.01 | 80 | 1009.7 |
| 20260510015105 | 54 | 20 | 0.0 | 0.0 | 0.00 | 0.01 | 0.01 | 80 | 1009.7 |
| 20260510014605 | 54 | 20 | 0.0 | 0.0 | 0.00 | 0.01 | 0.01 | 80 | 1009.8 |
| 20260510013605 | 54 | 20 | 0.0 | 0.0 | 0.00 | 0.01 | 0.01 | 79 | 1009.7 |
| 20260510013105 | 54 | 20 | 0.0 | 0.0 | 0.00 | 0.01 | 0.01 | 79 | 1009.8 |
| 20260510012605 | 54 | 20 | 0.0 | 0.0 | 0.00 | 0.01 | 0.01 | 78 | 1009.7 |
| 20260510011606 | 54 | 20 | 0.0 | 0.0 | 0.00 | 0.01 | 0.01 | 78 | 1009.6 |
| 20260510010604 | 55 | 20 | 0.0 | 0.0 | 0.00 | 0.01 | 0.01 | 77 | 1009.5 |
| 20260510005605 | 55 | 20 | 0.0 | 0.0 | 0.00 | 0.01 | 0.01 | 77 | 1009.5 |
| 20260510005105 | 55 | 20 | 0.0 | 0.0 | 0.00 | 0.01 | 0.01 | 77 | 1009.5 |
| 20260510004104 | 56 | 20 | 0.0 | 0.0 | 0.00 | 0.01 | 0.01 | 76 | 1009.5 |
| 20260510003606 | 56 | 20 | 0.0 | 0.0 | 0.00 | 0.01 | 0.01 | 76 | 1009.5 |
| 20260510002606 | 57 | 19 | 0.0 | 0.0 | 0.00 | 0.01 | 0.01 | 76 | 1009.5 |
| 20260510002104 | 57 | 19 | 0.0 | 0.0 | 0.00 | 0.01 | 0.01 | 75 | 1009.5 |
| 20260510001605 | 57 | 19 | 0.0 | 0.0 | 0.00 | 0.01 | 0.01 | 75 | 1009.5 |
| 20260510001105 | 57 | 19 | 0.0 | 0.0 | 0.00 | 0.01 | 0.01 | 74 | 1009.5 |
| 20260510000605 | 58 | 19 | 0.0 | 0.0 | 0.00 | 0.01 | 0.01 | 74 | 1009.4 |
| 20260510000104 | 58 | 19 | 0.0 | 0.0 | 0.00 | 0.01 | 0.01 | 74 | 1009.5 |
| 20260509235604 | 59 | 19 | 0.0 | 0.0 | 0.00 | 0.01 | 0.01 | 74 | 1009.5 |
| 20260509235105 | 59 | 20 | 0.0 | 1.0 | 0.00 | 0.01 | 0.01 | 73 | 1009.5 |
| 20260509234605 | 59 | 20 | 0.0 | 1.0 | 0.00 | 0.01 | 0.01 | 73 | 1009.4 |
| 20260509234105 | 59 | 8 | 0.0 | 1.0 | 0.00 | 0.01 | 0.01 | 73 | 1009.4 |
| 20260509233605 | 60 | 4 | 0.0 | 1.0 | 0.00 | 0.01 | 0.01 | 72 | 1009.3 |
| 20260509233104 | 60 | 4 | 0.0 | 1.0 | 0.00 | 0.01 | 0.01 | 72 | 1009.2 |
| 20260509232105 | 60 | 74 | 0.0 | 3.0 | 0.00 | 0.01 | 0.01 | 72 | 1009.1 |
| 20260509231605 | 60 | 68 | 0.0 | 3.0 | 0.00 | 0.01 | 0.01 | 72 | 1009.0 |
| 20260509231105 | 60 | 71 | 0.0 | 2.0 | 0.00 | 0.01 | 0.01 | 72 | 1008.9 |
| 20260509230604 | 60 | 22 | 0.0 | 3.0 | 0.00 | 0.01 | 0.01 | 72 | 1009.0 |
| 20260509230105 | 60 | 7 | 0.0 | 1.0 | 0.00 | 0.01 | 0.01 | 72 | 1009.1 |
| 20260509225605 | 60 | 5 | 0.0 | 1.0 | 0.00 | 0.01 | 0.01 | 71 | 1009.1 |
| 20260509225104 | 60 | 5 | 1.0 | 2.0 | 0.00 | 0.01 | 0.01 | 71 | 1009.2 |
| 20260509224104 | 61 | 314 | 0.0 | 3.0 | 0.00 | 0.01 | 0.01 | 70 | 1009.2 |
| 20260509223604 | 61 | 23 | 0.0 | 1.0 | 0.00 | 0.01 | 0.01 | 70 | 1009.2 |
| 20260509223105 | 61 | 358 | 1.0 | 3.0 | 0.00 | 0.01 | 0.01 | 70 | 1009.1 |
| 20260509222605 | 61 | 357 | 0.0 | 2.0 | 0.00 | 0.01 | 0.01 | 70 | 1009.2 |
| 20260509222105 | 61 | 6 | 1.0 | 3.0 | 0.00 | 0.01 | 0.01 | 70 | 1009.1 |
| 20260509221605 | 61 | 4 | 0.0 | 1.0 | 0.00 | 0.01 | 0.01 | 70 | 1009.2 |
| 20260509221105 | 61 | 26 | 0.0 | 1.0 | 0.00 | 0.01 | 0.01 | 69 | 1009.3 |
| 20260509220606 | 61 | 353 | 0.0 | 2.0 | 0.00 | 0.01 | 0.01 | 69 | 1009.3 |
| 20260509220105 | 61 | 49 | 1.0 | 3.0 | 0.00 | 0.01 | 0.01 | 69 | 1009.4 |
| 20260509215605 | 61 | 357 | 0.0 | 2.0 | 0.00 | 0.01 | 0.01 | 68 | 1009.5 |
| 20260509214604 | 62 | 314 | 1.0 | 2.0 | 0.00 | 0.01 | 0.01 | 67 | 1009.5 |
| 20260509214105 | 62 | 9 | 0.0 | 2.0 | 0.00 | 0.01 | 0.01 | 66 | 1009.4 |
| 20260509213605 | 62 | 357 | 0.0 | 2.0 | 0.00 | 0.01 | 0.01 | 66 | 1009.4 |
| 20260509213105 | 62 | 350 | 1.0 | 3.0 | 0.00 | 0.01 | 0.01 | 66 | 1009.5 |